MINOTAUR 1 R/B, 48849

Orbit data source: Space-Track

MINOTAUR 1 R/B, 48849 is space debris in LEO originally from a launch on Tue, 15 Jun 2021 UTC launched from the Wallops Island (WLPIS). Debris objects in space refer to the collection of defunct objects orbiting the Earth. Examples of debris include non-operational satellites, rocket bodies, and fragments generated from explosions, collisions, or faulty payload assembly.

Loading next visibility...
Identifier
48849, 2021-052D
Orbit
LEO
Country
Flag of USUS
Related business
Manufacturer
NGIS FSG Utah
Mission
Spacecraft
Bus & Motor
ORION 38, Unknown motor
Mass
410 kg wet, 410 kg dry
Launch date (UTC)
2021-06-15 (5 years ago)
Launch vehicle
Unknown
Launch site
Wallops Island (WLPIS)
Object type
Payload
Rocket body
Debris
Shape & HBR
Cyl + 1 Nozzle, 0.7 m
Radar Cross Section
1.381 m², Large (>1 m²)

Expand to show TLE details & history
Last TLE update: 2 days ago

TLE from 2 days ago
0 MINOTAUR 1 R/B
1 48849U 21052D   26171.36612170  .00000916  00000-0  97447-4 0  9997
2 48849  54.9882 121.9705 0003626 264.8341  95.2255 14.98340433176473
Epoch: 2026-06-20T08:47Z
TLE epoch observation values (Epoch: 2026-06-20T08:47:12.914Z)
Latitude
-0.00006°
Longitude
81.58487°
Altitude
573.333 km
Speed
7.575 km/s
True Right ascension
08h 07m 52s
True Declination
0° 00' 00"
Sunlit
Object was in daylight at epoch
Visualization orbit readout
Latitude
Unknown
Longitude
Unknown
Altitude
Unknown
Speed
Unknown
Apparent Right ascension
Unknown
Apparent Declination
Unknown
Sunlit
N/A
Visualization observer readout
Local Sidereal Time
21:24:29
Azimuth
Unknown
Elevation
Unknown
Doppler factor
Unknown
Orbital elements
Apogee altitude
574.509 km
Perigee altitude
569.468 km
Semi-major axis
6,950.125 km
Eccentricity
0.00036
Inclination
54.9882°
RAAN
121.9705°
Arg. of periapsis
264.8341°
True anomaly
95.26688°
Mean anomaly
95.2255°
Eccentric anomaly
95.24619°
Mean motion
3.74588 °/min
Orbital period
96.11 mins
BSTAR
0.000097447
Loading maneuver chart data...
Computing Atmospheric mass density...
Loading historical data...
Loading historical data...
Loading historical data...
Loading historical data...
Loading historical data...
Loading historical data...
Loading historical data...
Other satellites on launch #52 in the year 2021 (2021-06-15 UTC)

Documentation

Showing up to 5 results
|